Regional Weather Roundup
Issued by NWS

Home | Current Version | Previous Version | Graphics & Text | Print | Product List | Glossary On
Versions: 1 2 3 4 5 6 7 8 9 10 11 12 13 14 15 16 17 18 19 20 21 22 23 24 25 26 27 28 29 30 31 32 33 34 35 36 37 38 39 40 41 42 43 44 45 46 47 48 49 50
000
ASUS43 KDMX 171706
RWRIA

WEATHER ROUNDUP FOR IOWA
NATIONAL WEATHER SERVICE DES MOINES IA
1100 AM CST TUE JAN 17 2017

NOTE: "FAIR" INDICATES FEW OR NO CLOUDS BELOW 12,000 FEET WITH NO
SIGNIFICANT WEATHER AND/OR OBSTRUCTIONS TO VISIBILITY.

* - THESE STATIONS ARE NOT NWS STATIONS...THUS NOT UNDER NWS
QUALITY CONTROL.  THEY ALSO DO NOT REPORT WEATHER SUCH
AS PRECIPITATION OR FOG.

IAZ001>003-012>014-020>022-031>034-043>046-171800-
   NORTHWEST IOWA

CITY           SKY/WX    TMP DP  RH WIND       PRES   REMARKS
CARROLL *      PTSUNNY   32  32 100 W12       30.04S WCI  23
CHEROKEE *     CLOUDY    27  27 100 W6        30.05S FOG     WCI  20
DENISON *      CLOUDY    27  27 100 W8        30.05S FOG     WCI  18
LE MARS *      SUNNY     25  21  86 W6        30.08S WCI  18
ORANGE CITY *  CLOUDY    21  19  93 W6        30.04S WCI  14
SHELDON *      FOG       23  23 100 W9        30.02R VSB<1/4 WCI  13
SIOUX CITY     CLOUDY    24  18  77 W8        30.09S WCI  15
SPENCER        CLOUDY    31  30  96 W9        30.02R FOG     WCI  23
STORM LAKE *   CLOUDY    28  28 100 W13       30.03R FOG     WCI  18
$$

IAZ055>058-069>071-079>083-090>094-171800-
   SOUTHWEST IOWA

CITY           SKY/WX    TMP DP  RH WIND       PRES   REMARKS
ATLANTIC *     CLOUDY    30  30 100 NW8G15    30.07S FOG     WCI  23
AUDUBON *      CLOUDY    30  28  93 CALM      30.06R FOG
CLARINDA *     CLOUDY    32  32 100 NW8       30.11R FOG     WCI  25
COUNCIL BLFS * CLOUDY    28  28 100 NW7       30.09S WCI  21
CRESTON *      CLOUDY    32  32 100 NW15      30.06R FOG     WCI  22
HARLAN  *      CLOUDY    30  30 100 NW9       30.11R FOG     WCI  22
LAMONI         CLOUDY    34  32  92 W15       30.04R FOG     WCI  24
RED OAK *      CLOUDY    30  30 100 NW8       30.10R FOG     WCI  23
SHENANDOAH *   CLOUDY    30  28  93 W8        30.12R WCI  23
$$

IAZ047>049-059>061-072>074-084-171800-
   CENTRAL IOWA

CITY           SKY/WX    TMP DP  RH WIND       PRES   REMARKS
AMES           CLOUDY    33  33 100 NW12      30.01R FOG     WCI  24
ANKENY *       CLOUDY    34  32  93 NW14G20   30.03R FOG     WCI  24
BOONE *        CLOUDY    32  32 100 W13G18    30.01R FOG     WCI  22
CHARITON *     CLOUDY    34  34 100 NW13      30.02R WCI  25
DES MOINES     DRIZZLE   35  33  92 NW16      30.03R FOG     WCI  25
GRINNELL*      FOG       33  33 100 W14       29.99R VSB 1   WCI  23
KNOXVILLE *    CLOUDY    34  34 100 W14       30.00R FOG     WCI  24
MARSHALLTOWN   CLOUDY    33  32  96 NW14      29.98R FOG     WCI  23
NEWTON *       CLOUDY    34  32  93 W13G18    29.99R FOG     WCI  25
PELLA *        CLOUDY    34  34  98 W9        30.02R FOG     WCI  27
PERRY *        CLOUDY    33  33 100 W13       30.04R FOG     WCI  24
$$

IAZ004>006-015-016-023>025-035-036-171800-
   NORTH CENTRAL IOWA

CITY           SKY/WX    TMP DP  RH WIND       PRES   REMARKS
ALGONA *       FOG       32  32 100 NW12      30.00S VSB 1   WCI  23
CLARION *      FOG       32  32 100 NW12      30.00S VSB 3/4 WCI  23
ESTHERVILLE    FOG       28  28 100 NW6       30.00R VSB 3/4 WCI  22
FORT DODGE *   CLOUDY    32  28  86 CALM      30.03R
MASON CITY     FOG       31  30  96 NW16      29.98R VSB 1/4 WCI  20
FOREST CITY *  FOG       32  32 100 NW10      29.98S VSB 1/2 WCI  24
WEBSTER CITY * CLOUDY    32  32 100 NW14      29.99S FOG     WCI  22
IOWA FALLS *   CLOUDY    33  32  97 NW9       29.99R FOG     WCI  25
$$

IAZ007>011-017>019-026>030-037>042-050>054-066-171800-
   NORTHEAST IOWA

CITY           SKY/WX    TMP DP  RH WIND       PRES   REMARKS
CEDAR RAPIDS   CLOUDY    34  33  96 W15       29.94R FOG     WCI  24
CHARLES CITY * FOG       32  32 100 NW12      29.95R VSB 3/4 WCI  23
CLINTON *      CLOUDY    35  35 100 W14       29.92S FOG     WCI  26
DECORAH *      FOG       32  32 100 NW5       29.90S VSB 3/4 WCI  27
DUBUQUE        CLOUDY    33  32  96 W8        29.90S FOG     WCI  26
MONTICELLO *   CLOUDY    34  34 100 W9        29.92S FOG     WCI  26
OELWEIN *      CLOUDY    34  32  93 W13       29.93S FOG     WCI  25
WATERLOO       FOG       33  31  92 W9        29.95R VSB 1   WCI  25
$$

IAZ064-065-067-068-078-171800-
   EAST CENTRAL IOWA

CITY           SKY/WX    TMP DP  RH WIND       PRES   REMARKS
DAVENPORT      CLOUDY    35  34  96 W13       29.93S WCI  26
IOWA CITY      CLOUDY    36  34  92 W10       29.97R WCI  28
MUSCATINE *    CLOUDY    37  34  87 W12G17    29.97R WCI  30
QUAD CITIES    CLOUDY    38  34  85 W8        29.93S WCI  32
$$

IAZ062-063-075>077-085>089-095>099-171800-
   SOUTHEAST IOWA

CITY           SKY/WX    TMP DP  RH WIND       PRES   REMARKS
BURLINGTON     CLOUDY    36  35  96 W8        29.97S FOG     WCI  30
FAIRFIELD *    CLOUDY    36  34  93 W13       29.99R FOG     WCI  27
FORT MADISON * CLOUDY    36  36 100 W10G16    29.99S WCI  28
KEOKUK *       CLOUDY    37  36  93 W10       29.99S WCI  30
OSKALOOSA *    CLOUDY    33  33  99 W14       30.00R FOG     WCI  24
OTTUMWA        CLOUDY    35  34  96 W12       30.00R FOG     WCI  27
WASHINGTON *   CLOUDY    36  36 100 W13G18    29.99R FOG     WCI  27
$$

ABBREVIATIONS USED IN REMARKS
   TC - TEMPERATURES IN CELSIUS
  WCI - WIND CHILL INDEX
   HX - HEAT INDEX
  VSB - VISIBILITY
$$




USA.gov is the U.S. government's official web portal to all federal, state and local government web resources and services.